User: anonymous   Login
Location: Unspecified
(0.0000°N, 0.0000°E)
Time: 22:03:06
(UTC+01:00)
Language:

Centaur D-1AR AC-41 - Orbit

View from above orbital plane
View from above orbital plane
View from above satellite
View from above satellite

Ground track
Ground track

The orbit data is extracted from the following two-line orbital elements,

1 10976U 78068B   14327.12323519 -.00000001  00000-0  40765-3 0  5246
2 10976 021.2745 166.7622 7169877 042.7027 087.3680 02.22295627295402
Epoch (UTC): 23 November 2014 02:57:27
Eccentricity: 0.7169877
inclination: 21.2745°
perigee height: 640 km
apogee height: 36202 km
right ascension of ascending node: 166.7622°
argument of perigee: 42.7027°
revolutions per day: 2.22295627
mean anomaly at epoch: 87.3680°
orbit number at epoch: 29540

The dashed part of the orbit path shows where the satellite is in the earth's shadow,  

DLR